PEGASUS DEB, 39913

Orbit data source: Space-Track

PEGASUS DEB, 39913 is space debris in LEO originally from a launch on Thu, 19 May 1994 UTC launched from the Air Force Western Test Range (AFWTR). Debris objects in space refer to the collection of defunct objects orbiting the Earth. Examples of debris include non-operational satellites, rocket bodies, and fragments generated from explosions, collisions, or faulty payload assembly.

Loading next visibility...
Identifier
39913, 1994-029AFL
Orbit
LEO
Country
Flag of USUS
Related business
Manufacturer
Unknown
Mission
Spacecraft
Bus & Motor
Unknown
Mass
Unknown
Launch date (UTC)
1994-05-19 (32 years ago)
Launch vehicle
Unknown
Launch site
Air Force Western Test Range (AFWTR)
Object type
Payload
Rocket body
Debris
Shape & HBR
Unknown shape, 0.1 m
Radar Cross Section
Small (<0.1 m²)

Expand to show TLE details & history
Last TLE update: 2 weeks ago

TLE from 2 weeks ago
0 PEGASUS DEB
1 39913U 94029AFL 26055.17595444  .00007324  00000-0  23065-2 0  9990
2 39913  81.5634 226.3444 0515059 247.4901 107.0974 13.84237384 99965
Epoch: 2026-02-24T04:13Z
TLE epoch observation values (Epoch: 2026-02-24T04:13:22.463Z)
Latitude
0.00003°
Longitude
8.94156°
Altitude
1,080.08 km
Speed
7.248 km/s
True Right ascension
15h 05m 22s
True Declination
0° 00' 00"
Sunlit
Object was in daylight at epoch
Visualization orbit readout
Latitude
Unknown
Longitude
Unknown
Altitude
Unknown
Speed
Unknown
Apparent Right ascension
Unknown
Apparent Declination
Unknown
Sunlit
N/A
Visualization observer readout
Local Sidereal Time
16:16:21
Azimuth
Unknown
Elevation
Unknown
Doppler factor
Unknown
Orbital elements
Apogee altitude
1,323.319 km
Perigee altitude
568.838 km
Semi-major axis
7,324.215 km
Eccentricity
0.05151
Inclination
81.5634°
RAAN
226.3444°
Arg. of periapsis
247.4901°
True anomaly
112.62527°
Mean anomaly
107.0974°
Eccentric anomaly
109.87273°
Mean motion
3.46259 °/min
Orbital period
103.97 mins
BSTAR
0.0023065
Loading maneuver chart data...
Computing Atmospheric mass density...
Loading historical data...
Loading historical data...
Loading historical data...
Loading historical data...
Loading historical data...
Loading historical data...
Loading historical data...

Documentation

Showing up to 5 results
|